闪电 1-80星 (MOLNIYA 1-80)

导读

MOLNIYA 1-80(闪电1-80)是独联体(CIS)继承苏联航天体系后,于1991年2月15日发射的军事通信卫星,隶属于“闪电1号”卫星系列。该卫星运行在近地点500千米、远地点40000千米的12小时周期闪电轨道,具备三轴稳定姿态控制,搭载通信转发器与对地观测载荷,可支持军事通信、气象观测等任务,设计寿命约1至3年,是冷战末期苏联-独联体战略通信卫星组网的重要成员。

基本信息
目录编号:
21118
目录名称:
MOLNIYA 1-80
国际标识:
1991-012A
轨道中心:
EARTH
卫星名称:
闪电 1-80星
卫星全名:
闪电 1-80星 (MOLNIYA 1-80)
卫星状态:
在轨 (已飞行12947 天)
发射日期:
1991-02-15 UTC
国别 :
俄罗斯(独联体) (CIS)
星等 :
--
轨道信息
数据来源 国际轨道数据 AOE轨道数据
星历时间 2026-07-24T05:31:37+0800
4天前
查看轨道信息
2026-07-25T15:00:00+0800
2天前
查看轨道信息
半长轴 26155.179km 26155.17km
偏心率 0.6334437 0.6334644
轨道倾角 64.893° 64.893°
近地点辐角 255.312° 255.289°
升交点赤经 192.038° 191.921°
平近点角 30.768° 341.295°
近地点 3209.208km 3208.663km
远地点 36344.876km 36345.403km
周期 701.611分钟 701.610分钟
每日圈数 2.05242 2.052421
详细信息
平衡模式:
三轴稳定
覆盖范围:
全球
运营商:
俄罗斯国家航天集团
运营商所在国:
俄罗斯
制造商(研发单位):
普里克拉德诺伊·梅哈尼基设计局
制造商所在国:
俄罗斯联邦
使用方式:
暂无
卫星简介
闪电(Molniya (Satellite))系列卫星是苏联/俄罗斯于1965年至2004年间发射的军事和通信卫星。这些卫星使用高度偏心的椭圆轨道,称为Molniya轨道(即闪电轨道),在高纬度地区具有较长的停留时间。该卫星状态未知。
2D轨道图
3D轨道图
轨道高度分析图
轨道倾角分析图
轨道综合分析图
查看轨道综合分析图